Regional Weather Roundup
Issued by NWS Little Rock, AR

Home | Current Version | Previous Version | Text Only | Print | Product List | Glossary On
Versions: 1 2 3 4 5 6 7 8 9 10 11 12 13 14 15 16 17 18 19 20 21 22 23 24 25 26 27
000
ASUS44 KLZK 291905
RWRLZK

WEATHER ROUNDUP FOR ARKANSAS
NATIONAL WEATHER SERVICE LITTLE ROCK AR
200 PM CDT FRI APR 29 2016

NOTE: "FAIR" INDICATES FEW OR NO CLOUDS BELOW 12,000 FEET WITH NO
SIGNIFICANT WEATHER AND/OR OBSTRUCTIONS TO VISIBILITY.

ARZ001-003-010-029-292000-
NORTHWEST ARKANSAS

CITY           SKY/WX    TMP DP  RH WIND       PRES   REMARKS
FAYETTEVILLE   PTSUNNY   70  62  76 E12       29.81F
FORT SMITH     CLOUDY    67  58  72 E17G25    29.78F
HARRISON       CLOUDY    56  54  93 SE13      29.90S
BENTONVILLE    CLOUDY    66  55  68 SE16G23   29.84F
ROGERS         CLOUDY    64  57  78 E15       29.84S
SILOAM SPGS    CLOUDY    66  54  63 E7G17     29.82S
HIGHFILL       CLOUDY    66  59  78 E15G23    29.82F
SPRINGDALE     CLOUDY    64  57  77 E16G22    29.84F
$$

ARZ004-005-016-292000-
NORTH CENTRAL ARKANSAS

CITY           SKY/WX    TMP DP  RH WIND       PRES   REMARKS
BATESVILLE     CLOUDY    61  55  82 E13G23    29.92F
FLIPPIN        CLOUDY   N/A N/A N/A E9        29.87S
MTN HOME       LGT RAIN  57  55  93 E12       29.89S
$$

ARZ040-041-292000-
WEST CENTRAL ARKANSAS

CITY           SKY/WX    TMP DP  RH WIND       PRES   REMARKS
MENA           CLOUDY    63  63 100 E3        29.82F
MOUNT IDA      CLOUDY    62  60  93 VRB3      29.77F
$$

ARZ009-017-025-026-028-292000-
NORTHEAST ARKANSAS

CITY           SKY/WX    TMP DP  RH WIND       PRES   REMARKS
CORNING        LGT RAIN  57  57 100 SE36G46   29.87F
JONESBORO      HVY RAIN  58  58 100 NE17      29.99R FOG
NEWPORT        LGT RAIN  59  59 100 E21       29.92F
WALNUT RIDGE   CLOUDY    57  54  88 E26G37    29.86F
BLYTHEVILLE    RAIN      60  58  92 E13       30.02F FOG
$$

ARZ022-023-033-042-044-292000-
CENTRAL ARKANSAS

CITY           SKY/WX    TMP DP  RH WIND       PRES   REMARKS
LITTLE ROCK    LGT RAIN  65  62  90 E9        29.89R
N LITTLE ROCK    N/A     62  60  96 E8        29.88R
JACKSONVILLE   LGT RAIN  62  62 100 NE6       29.88S
SEARCY         CLOUDY    61  57  88 NE8       29.92R
HOT SPRINGS    TSTM      67  64  90 CALM      29.84F FOG
RUSSELLVILLE   CLOUDY    63  59  87 E9        29.85F
$$

ARZ036-292000-
EAST ARKANSAS

CITY           SKY/WX    TMP DP  RH WIND       PRES   REMARKS
WEST MEMPHIS   HVY RAIN  61  61 100 MISG      30.03R VSB 1/2
$$

ARZ050-053-066-070-073-292000-
SOUTHWEST ARKANSAS

CITY           SKY/WX    TMP DP  RH WIND       PRES   REMARKS
ARKADELPHIA    LGT RAIN  71  71 100 VRB3      29.85S
CAMDEN         CLOUDY    79  68  69 E6        29.85R
TEXARKANA      CLOUDY    78  70  76 E9        29.78F
EL DORADO      CLOUDY    78  68  71 SE12      29.85R
DE QUEEN       TSTM      68  66  93 E9        29.74F
$$

ARZ056-057-069-292000-
SOUTHEAST ARKANSAS

CITY           SKY/WX    TMP DP  RH WIND       PRES   REMARKS
PINE BLUFF     LGT RAIN  65  62  90 E12       29.88F
STUTTGART      CLOUDY    64  59  82 E14       29.88F
MONTICELLO     CLOUDY    75  71  87 E5        29.88F

$$






USA.gov is the U.S. government's official web portal to all federal, state and local government web resources and services.